Eufaula, AL

1:01 AM CDT on September 25, 2016 (GMT -0500)
Weedon

Weather History for KEUF - November, 2012

Change the Weather History Date:

Thursday, November 8, 2012

  Actual Average (KLSF) Record (KLSF)
Temperature  
Mean Temperature 52 °F -  
Max Temperature 66 °F 68 °F 84 °F (2005)
Min Temperature 39 °F 42 °F 24 °F (2007)
Degree Days  
Heating Degree Days 12    
Growing Degree Days 2 (Base 50)    
Moisture  
Dew Point 39 °F    
Average Humidity 74    
Maximum Humidity 93    
Minimum Humidity 38    
Precipitation  
Precipitation 0.00 in - - ()
Sea Level Pressure  
Sea Level Pressure 30.16 in    
Wind  
Wind Speed 2 mph (NNW)    
Max Wind Speed 8 mph    
Max Gust Speed -    
Visibility 9 miles    
Events Rain    
Averages and records for this station are not official NWS values.
T = Trace of Precipitation, MM = Missing Value Source: NWS Daily Summary

Daily Weather History Graph

Daily Weather History Graph

Search for Another Location

Airport or City:

Trip Planner

Search our weather history database for the weather conditions in past years. The results will help you decide how hot, cold, wet, or windy it might be!

Date:

Astronomy

Nov. 08, 2012 Rise Set
Actual Time 6:03 AM CST 4:44 PM CST
Civil Twilight 5:37 AM CST 5:10 PM CST
Nautical Twilight 5:08 AM CST 5:39 PM CST
Astronomical Twilight 4:39 AM CST 6:08 PM CST
Moon 12:18 AM CST (11/8) 1:07 PM CST (11/8)
Length of Visible Light 11h 32m
Length of Day
10h 41m
Waning Crescent, 32% of the Moon is Illuminated
Nov 8
Waning Crescent
Nov 13
New
Nov 20
First Quarter
Nov 28
Full
Dec 6
Last Quarter

Hourly Weather History & Observations

Time (CST) Temp. Windchill Dew Point Humidity Pressure Visibility Wind Dir Wind Speed Gust Speed Precip Events Conditions
12:58 AM 43.0 °F 41.3 °F 39.0 °F 86% 30.09 in 10.0 mi Variable 3.5 mph - N/A   Clear
1:58 AM 42.1 °F 40.2 °F 39.0 °F 89% 30.09 in 10.0 mi Variable 3.5 mph - N/A   Clear
2:58 AM 41.0 °F - 37.9 °F 89% 30.10 in 8.0 mi Calm Calm - N/A   Clear
3:58 AM 39.9 °F - 37.0 °F 89% 30.12 in 7.0 mi Calm Calm - N/A   Clear
4:58 AM 39.9 °F - 37.0 °F 89% 30.14 in 6.0 mi Calm Calm - 0.00 in   Clear
5:58 AM 39.0 °F - 37.0 °F 93% 30.15 in 6.0 mi Calm Calm - N/A   Clear
6:58 AM 42.1 °F - 39.0 °F 89% 30.17 in 7.0 mi Calm Calm - 0.00 in Rain Light Rain
7:58 AM 46.0 °F 41.9 °F 39.0 °F 76% 30.20 in 10.0 mi NNW 8.1 mph - N/A   Clear
8:58 AM 50.0 °F - 41.0 °F 71% 30.21 in 10.0 mi Variable 3.5 mph - N/A   Clear
9:58 AM 55.0 °F - 41.0 °F 59% 30.21 in 10.0 mi Calm Calm - N/A   Clear
10:58 AM 59.0 °F - 39.0 °F 48% 30.19 in 10.0 mi Variable 6.9 mph - N/A   Clear
11:58 AM 62.1 °F - 39.0 °F 43% 30.16 in 10.0 mi Calm Calm - N/A   Clear
12:58 PM 64.0 °F - 39.9 °F 41% 30.14 in 10.0 mi Variable 4.6 mph - N/A   Clear
1:58 PM 64.9 °F - 39.9 °F 40% 30.13 in 10.0 mi NNW 3.5 mph - N/A   Clear
2:58 PM 66.0 °F - 39.9 °F 38% 30.13 in 10.0 mi NNW 4.6 mph - N/A   Clear
3:58 PM 64.0 °F - 39.0 °F 40% 30.13 in 10.0 mi NNW 3.5 mph - N/A   Clear
4:58 PM 52.0 °F - 45.0 °F 77% 30.15 in 10.0 mi Calm Calm - N/A   Clear
5:58 PM 46.0 °F 44.8 °F 42.1 °F 86% 30.17 in 10.0 mi WNW 3.5 mph - N/A   Clear
6:58 PM 44.1 °F - 41.0 °F 89% 30.17 in 10.0 mi Calm Calm - N/A   Clear
7:58 PM 44.1 °F - 39.9 °F 85% 30.19 in 10.0 mi Calm Calm - N/A   Clear
8:58 PM 46.0 °F - 41.0 °F 83% 30.20 in 10.0 mi Calm Calm - N/A   Clear
9:58 PM 42.1 °F - 39.0 °F 89% 30.20 in 10.0 mi Calm Calm - N/A   Clear
10:58 PM 39.9 °F - 37.0 °F 89% 30.20 in 8.0 mi Calm Calm - N/A   Clear
11:58 PM 39.0 °F - 36.0 °F 89% 30.21 in 5.0 mi Calm Calm - 0.00 in   Clear